Weather History for KTYS - March, 2014

Change the Weather History Date:

Wednesday, March 26, 2014

  Actual Average Record
Temperature  
Mean Temperature 35 °F 53 °F  
Max Temperature 46 °F 65 °F 83 °F (1949)
Min Temperature 24 °F 42 °F 17 °F (1955)
Degree Days  
Heating Degree Days 30 12  
Month to date heating degree days 461 403  
Since 1 July heating degree days 3508 3299  
Cooling Degree Days 0 0  
Month to date cooling degree days 0 0  
Year to date cooling degree days 0 0  
Moisture  
Dew Point 11 °F    
Average Humidity 39    
Maximum Humidity 55    
Minimum Humidity 22    
Precipitation  
Precipitation 0.00 in 0.15 in 2.18 in (1913)
Month to date precipitation 1.94 3.61  
Year to date precipitation 10.01 12.19  
Snow  
Snow 0.00 in 0.00 in - ()
Month to date snowfall 0.5 0.8  
Since 1 July snowfall 12.4 5.9  
Snow Depth 0.00 in    
Sea Level Pressure  
Sea Level Pressure 30.30 in    
Wind  
Wind Speed 4 mph (North)    
Max Wind Speed 12 mph    
Max Gust Speed 17 mph    
Visibility 10 miles    
Events      
T = Trace of Precipitation, MM = Missing Value Source: NWS Daily Summary

Daily Weather History Graph

Daily Weather History Graph

Search for Another Location

Airport or City:

Trip Planner

Search our weather history database for the weather conditions in past years. The results will help you decide how hot, cold, wet, or windy it might be!

Date:

Astronomy

Mar. 26, 2014 Rise Set
Actual Time 7:30 AM EDT 7:52 PM EDT
Civil Twilight 7:05 AM EDT 8:18 PM EDT
Nautical Twilight 6:35 AM EDT 8:48 PM EDT
Astronomical Twilight 6:04 AM EDT 9:19 PM EDT
Moon 4:30 AM EDT (3/26) 3:37 PM EDT (3/26)
Length of Visible Light 13h 13m
Length of Day
12h 21m
Waning Crescent, 22% of the Moon is Illuminated
Mar 26
Waning Crescent
Mar 30
New
Apr 7
First Quarter
Apr 15
Full
Apr 22
Last Quarter

Hourly Weather History & Observations

Time (EDT) Temp. Windchill Dew Point Humidity Pressure Visibility Wind Dir Wind Speed Gust Speed Precip Events Conditions
12:53 AM 30.0 °F 26.5 °F 10.9 °F 45% 30.23 in 10.0 mi WNW 3.5 mph - N/A   Mostly Cloudy
1:53 AM 30.0 °F - 10.9 °F 45% 30.24 in 10.0 mi Calm Calm - N/A   Scattered Clouds
2:53 AM 28.0 °F 19.3 °F 12.9 °F 53% 30.25 in 10.0 mi NW 9.2 mph - N/A   Partly Cloudy
3:53 AM 28.0 °F 21.7 °F 12.0 °F 51% 30.25 in 10.0 mi NE 5.8 mph - N/A   Clear
4:53 AM 27.0 °F 18.7 °F 12.0 °F 53% 30.26 in 10.0 mi North 8.1 mph - N/A   Clear
5:53 AM 27.0 °F 21.6 °F 10.9 °F 51% 30.27 in 10.0 mi North 4.6 mph - N/A   Clear
7:53 AM 25.0 °F 18.1 °F 10.9 °F 55% 30.33 in 10.0 mi NNW 5.8 mph - N/A   Clear
8:53 AM 28.9 °F 23.9 °F 10.9 °F 47% 30.35 in 10.0 mi North 4.6 mph - N/A   Clear
9:53 AM 30.0 °F 23.2 °F 12.0 °F 47% 30.36 in 10.0 mi NE 6.9 mph - N/A   Clear
10:53 AM 33.1 °F 28.7 °F 12.0 °F 42% 30.37 in 10.0 mi NNE 4.6 mph - N/A   Clear
11:53 AM 34.0 °F 31.0 °F 9.0 °F 35% 30.38 in 10.0 mi Variable 3.5 mph - N/A   Clear
12:53 PM 37.9 °F 33.5 °F 9.0 °F 30% 30.37 in 10.0 mi NNE 5.8 mph - N/A   Clear
1:53 PM 39.0 °F 34.8 °F 8.1 °F 28% 30.34 in 10.0 mi NNE 5.8 mph - N/A   Clear
2:53 PM 41.0 °F 38.0 °F 10.0 °F 28% 30.33 in 10.0 mi South 4.6 mph - N/A   Clear
3:53 PM 43.0 °F 40.3 °F 7.0 °F 23% 30.32 in 10.0 mi Variable 4.6 mph - N/A   Clear
4:53 PM 44.1 °F 40.1 °F 9.0 °F 24% 30.29 in 10.0 mi South 6.9 mph - N/A   Clear
5:53 PM 45.0 °F 43.5 °F 8.1 °F 22% 30.28 in 10.0 mi Variable 3.5 mph - N/A   Clear
6:53 PM 44.1 °F - 9.0 °F 24% 30.27 in 10.0 mi Calm Calm - N/A   Clear
7:53 PM 42.1 °F 40.2 °F 9.0 °F 26% 30.28 in 10.0 mi West 3.5 mph - N/A   Clear
9:53 PM 39.0 °F - 12.0 °F 33% 30.27 in 10.0 mi Calm Calm - N/A   Clear
10:53 PM 34.0 °F 31.0 °F 16.0 °F 48% 30.27 in 10.0 mi NE 3.5 mph - N/A   Scattered Clouds
11:53 PM 34.0 °F - 15.1 °F 46% 30.29 in 10.0 mi Calm Calm - N/A   Scattered Clouds